Weather in Oktyabrskiy

Russia / Ryazan Oblast     54°14′00″N   38°53′29″E
temp.,
°C
wind,
m/s
gust,
m/s
humid.,
%
clouds,
%
prec.,
mm/h
press.,
hPa
HPBL,
m
9 march, tue
tue900:00−13nnw239361 0.0 101021
03:00−16nw339438 0.0 101234
06:00−17nw349749 0.0 101383
09:00−15nnw479667 0.0 1015260
12:00−12nnw579097 0.0 1016454
15:00−11nw578698 0.0 1017712
18:00−14nnw359192 0.0 101888
21:00−17nnw479346 0.0 1021112
10 march, wed
wed1000:00−20nw44980 0.0 102276
03:00−23nw46970 0.0 102390
06:00−25nw46970 0.0 1025103
09:00−23nnw47963 0.0 1027211
12:00−19nw359142 0.0 1027353
15:00−17nnw468857 0.0 1027495
18:00−20nnw339452 0.0 102826
21:00−22n239426 0.0 103020
11 march, thu
thu1100:00−24nne22950 0.0 103120
03:00−25n22920 0.0 103320
06:00−26nw12920 0.0 103320
09:00−22wnw22890 0.0 103467
12:00−16nw22780 0.0 1034234
15:00−14w23770 0.0 1033315
18:00−17wsw23840 0.0 103320
21:00−20wsw22830 0.0 103320
12 march, fri
fri1200:00−21sw23790 0.0 103320
03:00−21ssw33760 0.0 103321
06:00−22ssw34810 0.0 103351
09:00−18s49800 0.0 1033249
12:00−13s510780 0.0 1032364
15:00−10s611780 0.0 1030533
18:00−12sse5128634 0.0 1029327
21:00−13s6158767 0.0 1028354
13 march, sat
sat1300:00−12s61581100 0.0 1027414
03:00−11s71879100 0.0 1025546
06:00−9s81677100 0.0 1024635
09:00−8s101889100 0.2 1022793
12:00−7s101693100 0.5 1022796
15:00−5ssw91591100 1.1 1021824
18:00−4ssw71394100 0.7 1019624
21:00−4ssw61393100 0.9 1019454